Tracking 17739 objects as of 27-June-2016
HD Live streaming from Space Station
objects crossing your sky now

UNAMSAT

Track UNAMSAT now!
10-day predictions
UNAMSAT is classified as:


NORAD ID: 24305
Int'l Code: 1996-052B
Perigee: 971.8 km
Apogee: 1,014.6 km
Inclination: 82.9 °
Period: 104.8 minutes
Semi major axis: 7364 km
RCS: 0.174 m2 (medium)
Launch date: September 5, 1996
Source: Mexico (MEX)
Launch site: PLESETSK MISSILE AND SPACE COMPLEX (PKMTR)
Your satellite tracking list
Your tracking list is empty





NASA's NSSDC Master Catalog

Two Line Element Set (TLE):
1 24305U 96052B   16178.52467268  .00000041  00000-0  27421-4 0  9994
2 24305  82.9375 255.6971 0029055 314.6284  45.2502 13.73769230992991
Source of the keplerian elements: AFSPC

N2YO: 853